Location: *
(46.3500°N, 10.9000°E)
Time: 00:31:12
(UTC+00:00)

Vanguard 2 - Pass Details

Date: 28 April 2021
Orbit: 552 x 2938 km, 32.9° (Epoch: 12 May)

Event Time Altitude Azimuth Distance (km) Brightness Sun altitude
Rises 12:25:29 0° 263° (W) 6,790 12.6 54.6°
Reaches altitude 10° 12:30:25 10° 258° (WSW) 5,706 12.5 54.2°
Maximum altitude 12:45:50 44° 195° (SSW) 3,035 12.4 52.6°
Drops below altitude 10° 12:56:44 10° 128° (SE) 4,102 11.3 51.4°
Sets 12:59:40 0° 121° (ESE) 4,798 11.5 51.1°
